Date,TemperatureHighF,TemperatureAvgF,TemperatureLowF,DewpointHighF,DewpointAvgF,DewpointLowF,HumidityHigh,HumidityAvg,HumidityLow,PressureMaxIn,PressureMinIn,WindSpeedMaxMPH,WindSpeedAvgMPH,GustSpeedMaxMPH,PrecipitationSumIn
2013-1-1,65.2,56.8,48.0,59.1,52.4,46.3,96,85,72,30.21,29.97,5,0,5,0.00
2013-1-2,63.7,58.6,53.3,60.1,55.1,49.3,95,88,79,30.15,29.92,7,0,7,0.00
2013-1-3,53.3,50.6,46.8,52.0,49.5,46.8,100,96,88,30.28,30.09,6,0,6,0.17
2013-1-4,56.5,45.6,37.5,46.7,39.1,31.2,100,81,46,30.36,30.26,8,0,8,0.00
2013-1-5,53.5,39.9,35.5,42.2,35.2,30.3,96,85,45,30.42,30.30,5,0,5,0.00
2013-1-6,55.1,49.2,46.2,48.1,47.0,42.2,97,92,64,30.31,30.12,2,0,2,0.08
2013-1-7,55.7,49.0,43.1,45.7,39.6,35.5,89,71,49,30.40,30.19,13,1,13,0.00
2013-1-8,67.9,54.2,44.6,57.7,48.3,39.8,92,81,67,30.40,30.31,8,0,8,0.00
2013-1-9,71.5,62.3,54.5,63.0,57.8,51.9,98,86,72,30.40,30.32,11,0,11,0.01
2013-1-10,67.8,59.8,55.3,61.5,57.6,55.1,100,93,66,30.45,30.35,13,0,13,0.04
2013-1-11,75.1,63.7,55.7,66.5,60.7,55.7,100,91,65,30.35,30.18,6,0,6,0.00
2013-1-12,77.6,66.1,58.4,66.4,62.1,58.4,100,88,64,30.21,30.11,5,0,5,0.01
2013-1-13,75.1,64.3,56.0,66.0,61.0,56.0,100,90,65,30.19,30.08,5,0,5,0.00
2013-1-14,76.7,66.2,59.6,66.8,62.7,59.0,100,90,66,30.21,30.11,8,0,8,0.00
2013-1-15,75.8,66.4,60.1,66.7,63.2,59.3,100,90,71,30.17,30.04,6,0,6,0.00
2013-1-16,76.5,68.6,62.9,66.1,63.5,61.8,100,85,62,30.07,29.96,7,0,7,0.00
2013-1-17,75.4,62.2,46.4,64.1,57.1,39.6,100,84,63,30.04,29.75,13,1,13,0.04
2013-1-18,56.0,47.0,40.5,42.1,34.1,26.0,88,64,33,30.50,30.05,14,1,14,0.00
2013-1-19,60.5,50.1,39.5,49.9,41.1,31.7,96,72,51,30.48,30.23,10,0,10,0.00
2013-1-20,69.1,53.8,43.9,49.6,42.6,30.5,100,72,24,30.23,30.05,7,0,7,0.00
2013-1-21,65.3,52.3,39.9,44.1,39.7,34.9,94,66,34,30.12,29.98,7,0,7,0.00
2013-1-22,56.3,48.1,41.2,37.4,27.6,23.7,59,46,32,30.30,30.06,5,0,5,0.00
2013-1-23,53.6,43.7,34.0,40.1,29.0,21.0,85,57,34,30.39,30.21,7,0,7,0.00
2013-1-24,66.8,52.0,36.9,47.3,37.4,23.3,77,59,31,30.48,30.12,14,2,14,0.00
2013-1-25,52.8,42.3,31.0,45.9,32.2,18.6,80,67,59,30.48,30.16,10,0,10,0.00
2013-1-26,60.4,48.2,39.5,45.9,39.4,33.9,85,72,47,30.32,30.14,7,0,7,0.00
2013-1-27,54.2,45.4,37.6,41.8,38.1,32.6,88,76,61,30.51,30.32,13,1,13,0.00
2013-1-28,63.4,51.3,43.3,56.1,46.3,38.7,95,83,70,30.47,30.30,2,0,6,0.00
2013-1-29,75.1,61.5,48.9,65.8,58.6,48.1,100,91,67,30.30,30.13,7,0,7,0.00
2013-1-30,74.4,68.7,59.8,67.2,65.1,57.3,96,89,75,30.12,29.64,17,1,17,0.15
2013-1-31,59.6,50.9,45.2,57.3,34.3,22.8,96,56,28,30.20,29.73,11,2,11,0.05
2013-2-1,58.0,48.4,38.6,33.6,26.5,15.2,60,44,20,30.38,30.18,13,1,13,0.00
2013-2-2,59.0,45.2,32.2,43.6,33.5,18.5,88,64,45,30.39,30.12,11,0,11,0.00
2013-2-3,62.4,51.3,43.9,41.8,34.7,31.5,83,55,33,30.12,29.93,11,1,11,0.00
2013-2-4,55.4,46.2,34.4,40.9,35.3,29.0,89,68,38,30.17,30.06,7,0,7,0.00
2013-2-5,68.3,52.3,38.6,52.0,45.6,36.9,100,80,46,30.10,29.96,10,0,10,0.00
2013-2-6,71.1,58.0,47.6,55.1,50.9,46.1,100,79,48,30.18,30.04,7,0,7,0.00
2013-2-7,59.9,54.8,49.4,57.8,54.2,48.1,100,98,89,30.17,29.72,10,0,10,1.46
2013-2-8,65.5,55.4,48.2,57.2,50.2,46.9,100,84,59,30.07,29.72,7,1,7,0.05
2013-2-9,62.0,50.7,41.3,50.3,36.5,25.9,91,62,27,30.35,30.07,8,0,8,0.00
2013-2-10,65.2,53.9,40.8,57.4,47.9,38.7,98,82,60,30.41,30.20,13,1,13,0.00
2013-2-11,64.3,62.5,60.1,63.9,61.4,57.2,100,97,83,30.24,30.06,8,0,8,1.44
2013-2-12,60.1,56.3,50.8,60.1,55.0,49.3,100,96,74,30.13,29.89,8,0,8,2.01
2013-2-13,73.5,59.8,50.5,66.3,54.6,47.4,100,85,47,29.90,29.70,13,1,13,0.23
2013-2-14,53.9,50.1,45.1,49.1,42.3,38.0,92,75,58,30.10,29.85,6,0,6,0.00
2013-2-15,60.5,49.1,39.1,46.3,41.9,37.9,100,79,46,30.13,29.99,9,0,9,0.00
2013-2-16,55.4,43.9,36.3,45.9,39.9,29.3,100,86,62,30.07,29.86,7,1,7,0.04
2013-2-17,48.0,38.1,30.0,30.4,19.2,8.8,80,51,24,30.34,30.07,8,1,8,0.00
2013-2-18,54.1,41.4,28.5,35.5,26.7,20.9,85,60,31,30.45,30.29,11,0,11,0.00
2013-2-19,65.6,51.9,39.6,57.3,48.9,35.5,100,91,56,30.29,30.00,12,1,12,0.21
2013-2-20,56.5,47.7,35.9,50.5,37.0,25.8,100,70,31,30.19,30.06,9,0,9,0.01
2013-2-21,61.3,49.1,37.9,49.4,42.1,36.6,100,79,47,30.21,30.11,11,1,11,0.00
2013-2-22,64.5,55.5,49.4,64.5,52.5,44.9,100,90,73,30.22,30.06,17,1,17,0.52
2013-2-23,61.3,52.4,45.8,61.3,52.4,45.8,100,100,100,30.06,29.80,8,0,8,2.53
2013-2-24,65.6,55.6,48.5,56.6,51.4,45.8,100,88,49,30.01,29.78,5,0,5,0.01
2013-2-25,51.9,48.3,42.5,50.9,47.0,41.5,100,95,84,30.10,29.96,13,1,13,0.27
2013-2-26,71.3,62.8,48.5,67.1,59.6,47.4,100,90,64,29.98,29.60,16,2,16,0.77
2013-2-27,63.2,53.8,48.9,53.4,43.2,37.7,84,68,55,29.92,29.71,7,1,7,0.00
2013-2-28,60.9,53.3,47.3,42.6,36.8,30.3,74,55,34,29.92,29.80,11,1,11,0.00
2013-3-1,52.9,46.9,40.6,38.4,33.5,30.8,74,60,47,29.99,29.89,6,0,6,0.00
2013-3-2,51.3,44.0,37.5,36.5,33.6,30.0,82,67,46,29.96,29.86,8,1,8,0.00
2013-3-3,47.7,41.0,33.1,35.1,29.0,26.5,89,63,45,30.04,29.93,10,1,10,0.00
2013-3-4,56.9,43.3,30.0,39.3,27.4,20.3,86,57,26,30.20,30.04,7,0,7,0.00
2013-3-5,63.5,54.7,42.5,57.0,45.5,36.6,99,73,38,30.15,29.73,11,1,11,0.03
2013-3-6,58.7,48.3,41.6,55.5,31.7,23.3,90,54,38,30.09,29.72,14,2,14,0.00
2013-3-7,60.9,47.7,35.8,41.6,34.3,30.0,90,62,36,30.25,30.09,7,0,7,0.00
2013-3-8,60.7,48.5,38.9,39.5,30.8,24.4,92,54,26,30.31,30.17,11,0,11,0.00
2013-3-9,61.8,49.4,39.2,43.6,37.5,31.1,90,65,39,30.34,30.25,12,0,12,0.00
2013-3-10,66.1,52.9,40.9,46.8,42.4,39.1,100,71,38,30.29,30.21,11,1,11,0.00
2013-3-11,70.1,60.5,48.6,60.4,54.6,46.2,100,82,62,30.22,29.92,12,0,12,0.00
2013-3-12,70.3,64.8,57.0,63.6,58.9,48.0,97,82,55,29.95,29.81,14,1,14,0.10
2013-3-13,65.6,56.4,44.2,48.7,35.4,26.7,85,49,25,30.14,29.95,12,1,12,0.00
2013-3-14,55.9,47.6,38.8,35.7,25.7,20.9,78,44,26,30.32,30.11,10,0,10,0.00
2013-3-15,67.8,52.5,40.2,48.8,38.5,30.5,87,62,31,30.26,30.06,7,0,7,0.00
2013-3-16,77.2,64.0,55.6,53.9,49.1,43.6,81,60,36,30.07,29.87,10,1,10,0.00
2013-3-17,75.3,64.9,58.6,58.9,54.0,50.6,83,68,50,30.04,29.95,8,1,8,0.00
2013-3-18,65.3,61.3,58.0,62.9,58.3,54.6,100,90,73,30.08,29.86,11,1,11,0.64
2013-3-19,76.7,63.3,55.3,58.9,50.9,31.9,100,71,26,29.99,29.82,8,0,8,0.02
2013-3-20,64.3,55.5,45.2,40.3,33.1,21.0,83,45,22,30.10,29.84,14,1,14,0.00
2013-3-21,59.2,49.5,42.1,40.8,26.1,15.7,89,44,19,29.96,29.80,12,1,12,0.00
2013-3-22,52.8,46.1,38.6,41.8,30.1,19.7,74,54,43,30.12,29.96,9,1,9,0.00
2013-3-23,56.6,49.9,45.1,53.1,46.5,41.1,100,89,60,30.07,29.89,8,0,8,0.68
2013-3-24,65.3,54.0,47.4,65.3,53.5,46.0,100,98,94,29.89,29.47,13,1,13,2.90
2013-3-25,56.3,49.7,43.6,48.1,33.8,18.7,97,59,27,29.98,29.60,12,2,12,0.00
2013-3-26,51.7,44.0,35.8,31.8,27.4,24.3,69,53,39,30.20,29.98,8,1,8,0.00
2013-3-27,59.2,46.9,33.5,35.1,29.8,25.5,85,55,30,30.30,30.18,7,0,7,0.00
2013-3-28,61.2,49.4,38.9,38.3,30.9,25.2,87,53,27,30.32,30.19,11,0,11,0.00
2013-3-29,63.5,51.4,38.9,45.1,38.2,33.6,95,65,33,30.37,30.22,11,0,11,0.00
2013-3-30,72.7,59.9,49.1,54.9,48.4,40.6,94,69,32,30.25,30.08,6,0,6,0.00
2013-3-31,72.7,64.3,56.9,59.0,56.0,52.0,89,75,59,30.09,29.89,9,1,9,0.02
2013-4-1,77.7,67.3,60.2,62.7,58.9,56.0,97,76,52,29.95,29.84,7,0,7,0.03
2013-4-2,65.3,57.5,49.1,57.5,48.8,41.2,95,75,45,30.14,29.94,13,1,13,0.00
2013-4-3,70.8,57.2,49.5,56.3,49.7,43.8,100,78,55,30.25,30.07,13,1,13,0.00
2013-4-4,62.4,56.0,50.2,62.4,52.7,45.4,100,89,69,30.25,29.85,18,1,18,0.45
2013-4-5,60.4,51.1,44.5,50.8,47.5,44.5,100,89,69,30.03,29.89,11,0,11,0.15
2013-4-6,71.5,57.2,44.8,54.3,47.3,34.8,100,74,28,30.24,30.03,17,1,17,0.00
2013-4-7,72.3,62.7,51.7,61.0,56.2,50.6,100,81,49,30.25,30.14,13,1,13,0.00
2013-4-8,79.8,66.4,53.5,63.5,59.3,52.9,100,80,54,30.19,30.11,2,0,7,0.00
2013-4-9,83.4,69.1,57.8,66.1,62.0,57.2,100,80,46,30.21,30.12,1,0,5,0.00
2013-4-10,81.2,69.4,58.4,66.3,62.5,57.8,100,81,48,30.17,30.01,2,0,8,0.00
2013-4-11,77.6,70.5,62.1,71.3,67.5,61.5,100,91,79,30.01,29.83,9,0,9,0.00
2013-4-12,78.1,71.6,67.8,72.0,69.4,66.6,100,93,81,29.84,29.71,11,1,11,0.72
2013-4-13,77.0,65.2,55.6,66.9,52.6,44.1,97,66,38,30.01,29.81,11,1,11,0.00
2013-4-14,71.5,63.7,54.5,64.6,59.2,53.7,100,86,69,30.09,29.92,13,1,13,0.22
2013-4-15,71.1,66.3,63.2,67.4,64.0,61.1,100,93,72,30.15,29.88,3,0,13,0.63
2013-4-16,77.4,69.0,60.4,66.2,63.4,60.1,100,84,64,30.23,30.15,8,1,11,0.01
2013-4-17,80.3,69.8,62.1,67.9,63.9,59.3,100,83,50,30.23,30.13,12,1,12,0.00
2013-4-18,79.4,72.0,65.5,68.9,66.7,64.3,99,85,64,30.14,30.02,12,1,12,0.00
2013-4-19,79.8,72.9,68.1,72.7,69.6,66.7,100,90,78,30.02,29.84,13,1,13,0.80
2013-4-20,68.8,55.7,49.4,68.6,51.0,44.6,100,86,57,30.24,29.92,7,0,7,0.37
2013-4-21,68.8,57.4,45.8,54.0,49.0,44.6,96,75,52,30.33,30.24,19,2,19,0.00
2013-4-22,69.4,58.6,49.4,53.4,47.7,38.4,80,68,54,30.29,30.12,12,1,12,0.00
2013-4-23,67.1,58.9,53.5,57.3,52.8,48.8,92,81,65,30.21,30.14,9,0,9,0.01
2013-4-24,77.6,64.8,50.2,63.4,57.1,49.6,100,79,45,30.19,30.07,8,0,8,0.00
2013-4-25,82.4,69.5,63.9,70.7,65.0,62.4,100,87,55,30.21,30.08,7,0,7,0.27
2013-4-26,74.6,65.8,59.5,64.5,54.2,34.9,100,72,27,30.37,30.20,13,1,13,0.00
2013-4-27,74.0,65.1,57.8,61.7,55.3,48.1,96,73,43,30.34,30.23,11,1,11,0.01
2013-4-28,75.8,68.9,60.1,66.1,62.9,57.3,97,82,67,30.23,30.02,14,1,14,0.00
2013-4-29,80.7,69.6,64.2,70.4,66.3,63.1,100,90,62,30.04,29.93,9,0,9,0.34
2013-4-30,74.6,67.6,63.9,67.4,64.4,60.4,100,90,71,30.08,29.95,12,0,12,0.02
2013-5-1,72.3,65.7,60.5,63.4,60.6,57.7,96,84,65,30.17,30.06,11,1,11,0.00
2013-5-2,73.7,67.7,63.2,64.6,63.0,58.6,94,85,71,30.16,30.10,18,2,18,0.00
2013-5-3,69.1,64.0,60.1,62.8,59.2,51.7,99,85,68,30.10,30.00,18,2,18,0.02
2013-5-4,66.1,62.7,59.2,61.8,59.0,54.0,97,88,75,30.00,29.89,20,2,20,0.06
2013-5-5,70.6,65.8,62.7,66.1,63.7,60.7,100,93,79,29.89,29.78,12,2,12,0.92
2013-5-6,71.1,64.1,58.0,64.0,57.2,50.4,100,80,50,29.93,29.82,7,0,7,0.00
2013-5-7,69.8,61.5,54.5,59.8,56.1,51.1,97,83,65,29.98,29.90,6,0,6,0.07
2013-5-8,76.8,65.5,52.2,62.7,57.5,51.1,98,77,51,30.05,29.97,7,0,7,0.00
2013-5-9,83.6,72.3,62.6,66.6,62.8,59.6,95,74,45,30.09,30.01,6,0,6,0.00
2013-5-10,85.7,74.1,63.9,69.2,64.0,61.5,93,72,46,30.09,30.00,7,0,7,0.00
2013-5-11,82.0,75.0,70.4,70.3,67.2,61.8,96,78,53,30.01,29.87,7,0,7,0.00
2013-5-12,82.0,75.0,67.6,69.6,62.1,52.6,89,67,42,29.99,29.84,7,0,7,0.00
2013-5-13,73.5,65.3,56.7,53.0,45.5,40.3,72,50,32,30.14,29.98,9,0,9,0.00
2013-5-14,73.7,63.4,49.4,56.1,50.5,45.1,90,65,36,30.25,30.13,11,1,11,0.00
2013-5-15,84.0,70.8,59.5,64.5,59.1,54.3,93,68,44,30.18,30.01,7,0,7,0.00
2013-5-16,84.1,74.9,67.3,69.4,64.3,58.8,89,70,52,30.06,29.98,5,0,5,0.00
2013-5-17,87.2,75.0,67.4,71.6,67.1,64.1,96,78,55,30.10,30.02,8,0,8,0.00
2013-5-18,83.4,75.1,67.6,70.7,68.4,65.3,99,81,59,30.14,30.06,8,0,8,0.00
2013-5-19,82.4,76.1,70.4,71.9,69.9,65.7,92,81,67,30.12,30.04,11,0,11,0.00
2013-5-20,81.1,75.8,71.8,73.5,71.2,69.0,96,86,72,30.09,30.02,8,0,8,0.03
2013-5-21,75.4,72.3,66.8,75.1,70.6,66.2,100,95,82,30.09,29.98,10,0,10,1.00
2013-5-22,84.5,75.3,66.4,73.7,69.2,65.8,100,83,59,30.01,29.92,11,0,11,0.00
2013-5-23,84.7,76.5,69.1,73.4,70.5,66.4,100,83,55,29.95,29.83,7,0,7,0.00
2013-5-24,82.4,75.3,67.1,71.5,58.6,40.5,92,58,29,30.15,29.85,7,0,7,0.00
2013-5-25,76.7,67.0,56.9,57.8,48.6,37.5,77,54,25,30.29,30.15,10,0,10,0.00
2013-5-26,82.2,70.5,58.0,64.2,59.5,55.7,97,70,45,30.25,30.13,10,0,10,0.00
2013-5-27,83.0,73.2,62.1,68.7,64.0,60.8,100,75,53,30.24,30.15,9,0,9,0.00
2013-5-28,83.6,74.7,65.6,69.9,65.6,62.3,99,75,50,30.23,30.16,11,1,11,0.00
2013-5-29,81.4,71.9,66.3,68.9,66.4,65.1,99,84,61,30.24,30.15,10,0,10,0.00
2013-5-30,84.1,76.6,68.8,73.0,70.4,66.2,100,82,66,30.24,30.16,11,1,11,0.00
2013-5-31,85.7,77.6,70.4,73.7,71.3,69.2,99,82,61,30.21,30.12,12,1,12,0.00
2013-6-1,84.7,77.2,69.4,72.8,70.3,68.2,99,81,62,30.14,30.06,11,1,11,0.00
2013-6-2,85.1,77.7,70.8,75.8,72.3,69.3,98,84,66,30.09,29.92,13,0,13,0.01
2013-6-3,82.2,75.9,71.3,76.3,74.1,70.1,100,94,75,29.95,29.84,8,0,8,1.12
2013-6-4,85.1,76.2,71.8,78.0,75.1,69.0,100,97,74,30.02,29.89,16,0,16,1.26
2013-6-5,81.2,75.7,72.1,76.8,73.6,71.6,100,94,76,30.02,29.93,14,1,14,0.54
2013-6-6,78.6,74.8,71.6,75.8,73.3,70.0,100,95,84,29.95,29.67,12,1,12,1.72
2013-6-7,84.5,76.9,73.2,75.6,73.5,70.2,100,90,67,29.86,29.50,24,1,24,0.28
2013-6-8,86.5,80.1,75.1,76.6,74.3,71.8,94,83,67,30.08,29.85,6,0,6,0.00
2013-6-9,86.7,79.8,75.6,76.9,74.8,73.2,97,85,67,30.12,30.05,13,0,13,0.00
2013-6-10,85.5,79.2,70.9,77.1,74.7,69.5,99,86,74,30.09,29.96,13,0,13,0.46
2013-6-11,87.4,77.8,72.0,78.3,74.5,71.7,100,91,64,30.03,29.91,5,0,5,0.84
2013-6-12,92.3,82.9,73.7,79.9,76.1,71.5,100,82,53,29.98,29.89,4,0,4,0.01
2013-6-13,93.6,86.0,78.8,80.4,78.0,73.4,96,79,54,29.91,29.71,7,0,7,0.00
2013-6-14,86.5,80.5,73.0,77.7,67.3,57.4,86,66,38,29.98,29.71,10,0,10,0.00
2013-6-15,83.4,76.1,69.1,69.5,64.4,55.4,95,69,44,30.11,29.98,14,1,14,0.00
2013-6-16,86.1,76.1,66.6,69.3,65.7,61.6,96,72,52,30.15,30.05,11,0,11,0.00
2013-6-17,86.5,78.5,71.5,76.8,73.0,68.4,98,84,65,30.07,29.96,7,0,7,0.23
2013-6-18,87.4,78.6,71.3,78.0,75.2,71.0,100,90,66,29.99,29.85,7,0,7,1.67
2013-6-19,87.8,78.4,73.0,77.6,74.3,72.1,100,88,65,30.02,29.87,6,0,6,2.24
2013-6-20,80.7,75.2,71.8,73.2,71.4,67.7,100,89,74,30.14,30.00,11,1,11,0.03
2013-6-21,84.0,77.1,70.6,74.1,70.6,66.5,92,81,65,30.15,30.09,11,0,11,0.01
2013-6-22,84.0,77.3,72.0,76.7,72.9,70.8,97,87,66,30.14,30.07,6,0,6,0.05
2013-6-23,87.8,79.8,73.5,77.1,74.7,72.0,99,85,65,30.16,30.09,13,1,13,0.00
2013-6-24,85.9,80.2,75.1,77.3,75.2,73.3,97,85,71,30.21,30.12,8,0,8,0.00
2013-6-25,88.2,80.5,75.3,77.5,75.4,72.9,97,85,70,30.15,30.04,8,0,8,0.07
2013-6-26,88.6,78.4,70.1,79.0,74.0,68.2,100,87,63,30.07,29.95,12,0,12,1.59
2013-6-27,88.6,80.1,75.3,80.9,76.9,72.8,100,91,66,29.98,29.79,7,0,7,0.12
2013-6-28,90.5,83.0,77.6,80.3,76.2,71.6,91,80,68,29.82,29.65,7,0,7,0.00
2013-6-29,87.2,79.4,72.8,77.5,74.2,70.4,97,85,69,29.76,29.67,8,0,8,0.09
2013-6-30,82.8,76.6,72.8,79.2,74.9,70.9,100,95,82,29.84,29.71,8,0,8,1.36
2013-7-1,84.5,78.6,73.7,78.1,75.4,72.2,99,90,78,30.00,29.81,11,0,11,0.30
2013-7-2,82.0,77.7,74.7,76.5,74.8,72.5,99,91,76,30.13,29.99,14,0,14,0.11
2013-7-3,86.3,78.6,75.1,78.8,75.9,74.4,100,92,73,30.19,30.10,12,0,12,0.35
2013-7-4,85.9,80.5,74.7,77.7,76.1,74.1,100,87,71,30.20,30.15,14,1,14,0.01
2013-7-5,88.4,80.8,75.8,78.7,76.1,74.3,96,86,67,30.21,30.15,12,1,12,0.21
2013-7-6,86.3,80.1,74.9,78.0,74.5,72.3,97,84,69,30.20,30.11,16,1,16,0.05
2013-7-7,88.4,80.5,73.7,75.9,73.6,72.0,97,80,61,30.17,30.09,10,0,10,0.00
2013-7-8,87.2,79.6,72.1,76.0,73.2,70.8,98,82,64,30.17,30.10,8,0,8,0.00
2013-7-9,87.8,80.3,73.3,76.4,73.9,71.2,98,82,64,30.18,30.08,8,0,8,0.00
2013-7-10,89.0,81.2,73.7,76.2,73.8,71.6,97,79,60,30.12,29.96,8,0,8,0.00
2013-7-11,88.6,81.8,76.5,78.0,74.7,72.1,91,80,65,30.00,29.87,7,0,7,0.00
2013-7-12,81.2,76.5,74.6,76.7,74.7,72.1,99,94,82,29.94,29.86,5,0,5,0.79
2013-7-13,83.6,77.5,73.7,78.2,75.1,73.1,100,93,75,30.06,29.92,13,1,13,0.08
2013-7-14,86.1,80.4,74.6,77.5,75.0,72.0,97,84,71,30.19,30.05,17,3,17,0.16
2013-7-15,87.8,82.2,76.8,77.6,76.0,72.1,95,82,67,30.22,30.16,14,2,14,0.00
2013-7-16,88.8,82.0,76.0,77.5,75.2,72.5,96,81,62,30.25,30.18,12,1,12,0.00
2013-7-17,92.9,80.7,74.0,79.1,74.8,71.0,98,84,58,30.20,30.08,8,0,8,0.12
2013-7-18,89.0,79.5,71.5,77.7,74.0,71.2,100,85,65,30.14,30.06,7,0,7,0.00
2013-7-19,87.0,80.2,74.6,78.2,74.5,72.8,98,84,67,30.12,30.01,10,0,10,0.15
2013-7-20,87.2,80.2,77.4,77.4,74.5,71.2,92,83,66,30.07,29.98,7,0,7,0.03
2013-7-21,85.7,78.8,74.6,78.4,74.5,71.8,96,87,72,30.03,29.93,6,0,6,0.24
2013-7-22,87.6,80.6,76.0,76.5,74.2,71.9,94,81,63,30.00,29.90,6,0,6,0.00
2013-7-23,87.8,81.4,76.7,75.8,73.8,72.3,90,78,61,29.93,29.78,5,0,5,0.00
2013-7-24,84.3,80.3,75.1,77.1,74.3,71.1,91,82,74,29.83,29.73,5,0,5,0.00
2013-7-25,89.9,79.9,74.2,79.5,73.8,68.6,95,83,62,29.96,29.75,8,0,8,0.01
2013-7-26,87.4,80.1,74.4,77.3,75.1,72.9,96,85,69,30.04,29.95,17,2,17,0.00
2013-7-27,87.2,81.7,76.1,77.3,75.8,74.1,96,83,68,30.02,29.89,12,1,12,0.00
2013-7-28,86.5,80.9,77.2,77.5,75.8,73.7,95,85,70,30.00,29.90,7,0,7,0.00
2013-7-29,91.4,79.4,74.6,79.3,76.2,73.4,99,91,60,30.13,29.99,5,0,5,0.36
2013-7-30,88.0,79.7,73.7,78.5,76.3,73.7,100,90,69,30.16,30.09,12,0,12,0.03
2013-7-31,86.3,78.7,74.4,78.7,75.7,71.8,99,91,69,30.11,30.01,8,0,8,0.47
2013-8-1,83.0,77.6,73.3,75.8,74.6,73.0,100,91,76,30.01,29.91,3,0,3,0.01
2013-8-2,88.4,81.0,74.7,78.1,75.5,73.5,96,84,66,30.02,29.92,7,0,7,0.00
2013-8-3,89.0,81.5,75.4,80.9,76.9,73.9,97,87,69,30.02,29.92,8,0,8,0.81
2013-8-4,90.3,83.0,76.1,78.9,76.5,74.3,97,82,63,29.98,29.86,8,0,8,0.01
2013-8-5,86.1,81.3,77.7,75.0,70.5,64.5,87,71,55,30.03,29.94,16,2,16,0.00
2013-8-6,87.2,80.8,73.9,72.9,70.8,68.3,90,72,58,30.03,29.94,11,1,11,0.00
2013-8-7,88.2,81.2,73.9,74.0,71.7,66.7,93,74,51,30.04,29.98,12,1,12,0.00
2013-8-8,88.6,81.0,74.6,78.5,75.5,72.3,98,84,66,30.05,29.98,8,0,8,0.00
2013-8-9,89.7,82.8,77.4,79.3,76.3,73.1,96,82,62,30.09,30.00,10,0,10,0.06
2013-8-10,89.9,83.1,76.3,78.7,76.5,75.1,98,82,65,30.11,30.05,8,0,8,0.00
2013-8-11,93.6,85.0,78.8,79.3,77.2,71.4,96,79,49,30.13,30.02,6,0,6,0.00
2013-8-12,94.5,85.8,78.8,80.1,77.3,74.2,90,77,53,30.08,29.93,6,0,6,0.00
2013-8-13,93.2,85.4,78.1,80.2,77.8,74.4,95,79,56,29.96,29.82,6,0,6,0.01
2013-8-14,88.6,80.0,74.6,79.9,75.9,74.2,100,88,68,29.98,29.84,7,0,7,2.60
2013-8-15,74.4,68.8,65.0,74.4,68.8,65.0,100,100,100,30.06,29.94,7,0,7,2.14
2013-8-16,79.0,72.4,67.3,75.6,71.0,67.3,100,96,86,30.07,29.98,8,0,8,0.08
2013-8-17,78.6,74.0,71.8,74.2,72.7,71.6,100,96,84,30.13,30.00,3,0,3,0.04
2013-8-18,87.4,78.3,72.1,77.6,74.0,70.4,100,88,63,30.17,30.09,13,1,13,0.50
2013-8-19,88.4,79.5,75.3,80.1,76.1,74.0,100,90,65,30.12,30.01,7,0,7,0.21
2013-8-20,88.8,80.4,75.1,78.5,76.1,74.1,100,88,69,30.13,30.03,10,0,10,0.01
2013-8-21,90.3,82.1,75.6,79.6,76.2,74.4,100,83,63,30.18,30.09,11,0,11,0.00
2013-8-22,89.3,80.1,75.1,77.1,75.1,71.5,99,86,60,30.13,30.01,6,0,6,0.13
2013-8-23,89.0,81.3,74.0,76.4,74.4,71.7,96,81,59,30.03,29.93,5,0,5,0.00
2013-8-24,82.4,77.6,73.2,75.4,72.6,69.5,98,85,69,30.18,29.99,10,0,10,0.67
2013-8-25,84.0,76.1,68.6,70.0,67.5,63.4,94,76,52,30.26,30.18,12,1,12,0.01
2013-8-26,84.1,76.3,69.6,71.0,68.1,64.3,88,76,60,30.23,30.10,11,1,11,0.06
2013-8-27,84.5,76.2,68.1,71.9,67.8,64.8,99,77,54,30.12,30.00,7,0,7,0.00
2013-8-28,88.0,79.3,72.0,74.8,71.3,68.5,94,77,58,30.02,29.93,5,0,5,0.00
2013-8-29,91.4,80.9,74.4,81.0,74.4,71.7,99,82,57,29.95,29.83,6,0,6,0.73
2013-8-30,87.8,79.5,75.8,77.5,75.8,73.3,100,89,69,29.98,29.88,16,1,16,0.01
2013-8-31,89.0,80.4,74.2,76.9,75.2,71.7,100,86,58,29.96,29.86,7,0,7,0.01
2013-9-1,90.1,82.4,76.8,79.7,76.6,73.6,97,83,62,29.93,29.83,10,0,10,0.00
2013-9-2,89.3,80.4,70.9,80.7,75.9,69.4,100,87,65,29.92,29.82,11,0,11,2.13
2013-9-3,90.3,79.1,73.0,80.1,74.9,72.5,100,88,61,29.93,29.81,6,0,6,0.10
2013-9-4,91.4,80.6,72.7,78.4,74.7,70.5,97,83,59,30.06,29.92,7,0,7,0.03
2013-9-5,90.3,82.0,75.4,78.8,75.9,73.7,98,83,62,30.06,29.98,8,0,8,0.02
2013-9-6,89.0,80.0,72.8,74.5,70.3,63.9,95,75,47,30.07,29.98,7,0,7,0.00
2013-9-7,86.3,77.8,72.0,74.5,70.8,62.7,97,80,48,30.05,29.95,10,0,10,0.00
2013-9-8,88.2,77.7,69.1,73.5,70.8,67.9,98,81,55,29.98,29.88,6,0,6,0.01
2013-9-9,87.2,79.4,72.1,75.3,72.1,68.9,98,79,63,30.10,29.95,14,1,14,0.00
2013-9-10,88.0,80.1,72.7,74.8,72.6,68.7,95,79,56,30.18,30.09,16,1,16,0.00
2013-9-11,86.7,79.5,73.3,76.2,72.3,67.0,97,80,52,30.15,30.06,11,1,11,0.00
2013-9-12,88.6,79.3,71.6,73.9,71.9,69.3,98,79,55,30.06,29.86,8,0,8,0.00
2013-9-13,88.8,79.6,75.4,76.8,73.7,71.6,93,83,60,29.87,29.71,6,0,6,0.02
2013-9-14,84.3,75.5,68.8,75.1,69.9,62.9,97,83,70,30.02,29.76,11,0,11,0.81
2013-9-15,87.6,78.4,69.8,75.4,72.6,68.3,96,83,60,30.11,30.02,14,1,14,0.03
2013-9-16,89.0,79.2,73.5,77.8,74.6,71.4,100,87,58,30.09,29.99,7,0,7,0.49
2013-9-17,78.8,73.7,67.6,73.7,68.1,62.7,100,84,61,30.18,30.04,17,1,17,0.03
2013-9-18,77.2,70.9,63.4,64.6,59.9,52.5,90,70,45,30.19,30.11,11,0,11,0.01
2013-9-19,83.2,73.5,66.0,68.3,65.1,60.7,91,76,59,30.14,30.05,6,0,8,0.00
2013-9-20,85.3,74.7,67.1,70.6,67.3,64.5,100,79,54,30.07,29.93,11,0,11,0.00
2013-9-21,85.1,76.9,68.9,73.3,70.4,67.8,99,82,61,29.94,29.70,11,0,11,0.00
2013-9-22,78.8,73.8,68.9,74.2,69.8,66.6,100,88,72,29.84,29.67,7,0,7,0.14
2013-9-23,80.7,72.7,65.3,67.6,63.0,58.9,95,73,51,30.01,29.83,13,1,13,0.00
2013-9-24,78.8,72.4,67.3,66.4,63.9,61.5,88,75,62,30.02,29.89,14,1,14,0.00
2013-9-25,77.6,73.0,69.1,69.0,66.7,64.0,90,81,71,29.89,29.76,10,0,10,0.00
2013-9-26,73.2,68.4,64.0,68.0,66.0,61.6,100,93,79,29.93,29.76,7,0,7,0.74
2013-9-27,77.4,69.7,62.4,65.9,62.3,58.7,92,78,62,30.08,29.92,10,0,10,0.00
2013-9-28,75.1,68.1,60.7,64.2,60.6,56.8,89,77,66,30.13,30.06,11,0,11,0.00
2013-9-29,77.0,68.0,61.5,61.2,59.9,57.7,95,77,52,30.09,29.99,8,0,8,0.00
2013-9-30,77.0,66.3,56.7,62.4,59.3,55.6,99,80,53,30.06,29.97,10,0,10,0.00
2013-10-1,79.4,68.8,59.8,63.1,60.6,57.8,98,77,49,30.12,30.02,8,0,8,0.00
2013-10-2,84.0,70.7,60.1,66.2,63.0,59.0,99,79,51,30.13,30.04,9,0,9,0.00
2013-10-3,84.0,72.7,63.7,71.0,67.3,62.3,100,84,62,30.12,30.05,12,0,12,0.00
2013-10-4,85.9,74.8,67.1,73.1,69.9,66.5,100,86,57,30.11,30.04,8,0,8,0.00
2013-10-5,86.3,75.1,68.3,72.6,69.9,66.4,100,85,57,30.10,30.01,11,1,11,0.00
2013-10-6,83.8,76.3,69.3,77.9,72.6,68.7,100,89,71,30.03,29.90,10,0,10,0.16
2013-10-7,78.5,75.3,73.2,76.5,74.4,72.7,100,97,89,29.91,29.78,8,0,8,1.00
2013-10-8,75.3,67.1,60.2,74.4,64.5,57.2,97,91,84,30.04,29.81,11,1,11,0.00
2013-10-9,73.9,65.5,58.4,63.9,59.3,55.2,94,81,68,30.09,30.00,10,0,10,0.00
2013-10-10,76.1,66.3,57.2,62.8,59.2,55.2,93,79,57,30.04,29.93,8,0,8,0.00
2013-10-11,79.8,70.1,63.2,66.0,63.4,61.1,96,81,58,30.00,29.89,6,0,6,0.00
2013-10-12,82.2,71.9,65.3,68.9,66.7,63.8,97,85,61,30.03,29.92,6,0,6,0.00
2013-10-13,76.8,71.3,67.4,69.3,66.7,65.0,95,86,71,30.11,30.01,7,0,7,0.00
2013-10-14,73.9,70.2,67.1,69.4,66.1,64.4,91,87,79,30.10,30.02,8,0,8,0.01
2013-10-15,72.3,66.9,63.4,64.4,61.7,59.6,94,84,67,30.09,29.98,8,0,8,0.00
2013-10-16,74.0,68.4,63.1,66.4,64.0,61.7,99,86,74,30.02,29.94,7,0,7,0.00
2013-10-17,80.3,70.3,61.3,70.0,65.4,60.4,100,86,67,29.98,29.87,8,0,8,0.00
2013-10-18,82.4,74.9,69.8,73.3,71.2,68.6,99,89,66,29.97,29.89,5,0,5,0.00
2013-10-19,80.7,74.1,66.3,73.4,71.0,65.5,99,91,71,29.93,29.84,5,0,5,0.21
2013-10-20,71.8,66.0,61.3,65.7,60.1,56.4,98,82,68,30.06,29.89,10,0,10,0.00
2013-10-21,70.1,65.6,61.8,64.0,60.2,55.6,88,83,79,30.10,30.00,6,0,6,0.00
2013-10-22,67.1,64.6,62.7,63.4,60.9,58.8,96,88,77,30.01,29.84,3,0,3,0.05
2013-10-23,71.3,64.1,56.3,62.4,53.8,41.2,100,73,36,30.01,29.76,8,0,8,0.02
2013-10-24,64.5,55.2,47.3,48.8,41.7,36.0,91,62,39,30.20,30.01,7,0,7,0.00
2013-10-25,61.3,54.2,48.8,51.8,44.3,38.1,96,71,45,30.34,30.15,11,0,11,0.00
2013-10-26,65.2,53.1,41.8,50.5,42.7,36.9,89,69,47,30.33,30.14,6,0,6,0.00
2013-10-27,72.1,57.1,44.1,56.8,49.1,42.2,96,77,49,30.16,30.06,3,0,3,0.00
2013-10-28,74.7,63.5,56.0,62.5,57.9,54.4,97,83,58,30.24,30.13,3,0,3,0.00
2013-10-29,76.0,63.3,53.5,62.2,57.5,52.7,100,83,53,30.32,30.22,7,0,7,0.00
2013-10-30,77.2,64.4,55.0,64.6,59.0,54.4,100,84,54,30.32,30.18,7,0,7,0.00
2013-10-31,80.5,68.7,56.6,68.9,63.5,55.5,100,85,64,30.20,29.98,7,0,7,0.00
2013-11-1,77.7,74.2,71.6,71.5,70.1,68.3,96,87,74,29.98,29.74,8,1,8,0.07
2013-11-2,71.8,64.7,55.3,70.6,61.5,52.8,100,90,62,29.95,29.72,3,0,3,0.59
2013-11-3,65.2,56.9,50.2,53.0,46.2,40.9,92,70,43,30.28,29.95,7,0,7,0.00
2013-11-4,64.5,56.9,50.8,49.2,44.6,37.6,81,65,39,30.41,30.27,12,1,12,0.00
2013-11-5,64.3,54.7,44.9,59.8,50.8,41.2,97,87,72,30.43,30.31,11,0,11,0.04
2013-11-6,73.9,65.1,56.5,66.6,61.4,55.4,99,88,74,30.31,30.08,7,0,7,0.00
2013-11-7,75.4,67.9,63.1,65.9,64.4,59.5,99,89,69,30.08,29.93,3,0,3,0.01
2013-11-8,63.2,53.7,43.9,59.2,39.7,33.5,92,61,37,30.31,30.03,12,0,12,0.00
2013-11-9,64.2,54.6,44.1,53.5,47.3,39.7,92,77,57,30.34,30.23,7,0,7,0.00
2013-11-10,68.3,59.0,51.3,57.2,52.2,48.3,96,80,51,30.25,30.14,5,0,5,0.00
2013-11-11,66.3,56.8,48.6,54.3,48.1,39.6,93,74,60,30.29,30.16,8,0,8,0.00
2013-11-12,69.6,57.8,43.9,53.8,47.2,31.6,97,70,45,30.33,30.00,14,0,14,0.00
2013-11-13,49.1,41.9,35.9,32.8,27.0,19.2,77,57,33,30.52,30.33,16,1,16,0.00
2013-11-14,60.2,47.2,32.8,48.1,38.6,27.6,93,73,52,30.50,30.32,8,0,8,0.00
2013-11-15,64.8,58.3,49.1,61.1,56.0,46.9,98,92,86,30.33,30.15,4,0,4,0.01
2013-11-16,73.5,64.3,59.0,64.5,60.9,58.2,100,90,68,30.22,30.14,8,0,8,0.01
2013-11-17,74.9,66.3,58.3,70.8,65.1,58.2,100,96,84,30.18,29.98,7,0,7,0.02
2013-11-18,81.4,72.3,65.0,71.3,68.3,50.3,100,88,60,29.98,29.81,5,0,5,0.01
2013-11-19,64.8,56.7,49.6,50.6,40.0,35.7,77,54,41,30.18,29.90,13,0,13,0.00
2013-11-20,59.0,52.8,45.7,50.0,44.4,37.3,79,73,66,30.32,30.18,11,1,11,0.00
2013-11-21,69.8,59.6,52.5,62.4,54.7,47.2,96,84,72,30.38,30.30,7,0,7,0.00
2013-11-22,73.0,65.7,59.8,66.1,63.0,59.0,100,92,76,30.34,30.15,9,0,9,0.02
2013-11-23,70.3,64.3,58.4,67.0,62.4,53.3,100,94,83,30.15,29.99,7,0,7,0.04
2013-11-24,58.3,45.3,36.3,53.2,26.3,16.4,83,48,29,30.52,30.09,16,1,16,0.00
2013-11-25,49.4,42.5,33.1,45.1,29.3,12.2,90,61,38,30.52,30.24,14,1,14,0.00
2013-11-26,70.3,60.3,46.4,70.3,59.5,44.3,100,97,90,30.24,29.61,16,1,16,1.87
2013-11-27,68.1,54.0,39.6,67.8,51.2,34.9,100,90,80,30.21,29.51,12,1,12,0.07
2013-11-28,48.2,38.7,32.8,35.1,28.5,21.8,93,68,41,30.50,30.21,11,0,11,0.00
2013-11-29,57.6,45.1,34.0,39.8,35.4,31.6,95,71,49,30.52,30.44,3,0,7,0.00
2013-11-30,57.6,47.7,37.8,44.5,38.9,32.0,82,72,58,30.52,30.31,9,1,9,0.00
2013-12-1,60.9,53.9,47.6,55.5,49.0,42.5,92,83,75,30.32,30.01,6,0,6,0.00
2013-12-2,64.3,55.2,47.6,53.6,49.8,44.2,96,83,53,30.01,29.82,6,0,6,0.00
2013-12-3,66.6,56.8,46.4,55.8,51.6,45.0,100,84,58,29.99,29.90,6,0,6,0.01
2013-12-4,75.4,64.4,57.2,65.2,60.4,55.8,100,88,68,30.10,29.98,4,0,4,0.00
2013-12-5,75.4,66.6,57.2,69.0,63.9,57.2,100,92,72,30.17,30.08,5,0,5,0.01
2013-12-6,75.8,70.5,66.6,69.5,67.0,64.2,98,89,79,30.15,30.07,7,0,7,0.00
2013-12-7,77.9,64.8,49.8,70.6,62.1,49.5,100,92,75,30.33,30.09,8,0,8,0.21
2013-12-8,49.8,47.3,46.1,49.8,47.2,45.6,100,99,97,30.34,30.24,10,0,10,0.08
2013-12-9,74.9,57.3,46.2,68.2,56.2,45.4,100,96,76,30.26,30.06,5,0,6,0.00
2013-12-10,71.6,63.4,49.8,67.7,59.8,45.9,100,89,66,30.31,29.97,10,1,10,0.06
2013-12-11,55.4,48.8,39.8,46.2,39.6,33.2,91,72,45,30.44,30.30,11,0,11,0.00
2013-12-12,54.8,45.9,37.9,42.8,35.1,27.3,95,69,35,30.42,30.27,10,0,10,0.00
2013-12-13,56.9,46.0,34.1,41.7,35.6,29.0,93,70,36,30.41,30.25,8,0,8,0.00
2013-12-14,70.4,61.1,48.2,67.8,58.6,41.7,100,92,75,30.25,29.79,13,1,13,0.61
2013-12-15,65.3,56.8,45.7,64.8,52.8,41.8,100,87,71,30.14,29.78,7,1,7,0.05
2013-12-16,61.5,47.8,37.2,45.7,40.3,35.6,96,78,41,30.23,30.14,3,0,3,0.00
2013-12-17,66.8,52.1,39.6,47.2,40.7,35.7,95,68,34,30.24,30.10,7,0,7,0.00
2013-12-18,58.4,50.4,39.5,40.1,36.2,28.2,91,60,36,30.34,30.12,10,0,10,0.00
2013-12-19,63.2,49.4,35.9,49.9,42.7,34.6,100,80,51,30.37,30.25,7,0,7,0.00
2013-12-20,72.5,58.6,48.2,60.8,54.1,46.7,100,86,62,30.27,30.17,4,0,4,0.00
2013-12-21,76.7,66.2,55.1,69.1,63.1,54.3,100,90,75,30.18,30.07,7,0,7,0.00
2013-12-22,77.9,71.6,68.1,71.5,68.8,66.3,97,91,79,30.12,30.07,12,1,12,0.00
2013-12-23,75.8,68.5,58.4,70.3,66.5,58.1,99,94,81,30.12,30.03,9,1,9,0.19
2013-12-24,59.5,53.5,43.5,58.4,45.3,33.6,100,76,44,30.36,30.07,10,0,10,0.04
2013-12-25,51.6,42.6,34.1,37.4,31.9,25.0,74,66,58,30.47,30.33,10,1,10,0.00
2013-12-26,51.3,45.6,41.5,45.1,39.8,32.0,89,80,68,30.34,30.24,8,0,8,0.00
2013-12-27,57.0,49.3,42.1,40.2,36.4,33.8,81,62,43,30.41,30.32,10,0,10,0.00
2013-12-28,61.8,51.5,39.2,55.6,44.6,34.2,98,77,61,30.40,30.04,10,0,10,0.05
2013-12-29,74.4,64.3,53.3,69.1,60.7,50.1,100,89,60,30.04,29.80,16,1,16,0.33
2013-12-30,59.6,52.6,45.5,50.0,46.5,44.4,96,81,60,30.18,29.98,5,0,6,0.00
2013-12-31,56.2,52.0,46.7,47.7,45.1,41.8,91,78,60,30.39,30.17,6,0,6,0.00
2014-1-1,54.1,48.7,45.8,49.4,45.7,42.8,100,90,77,30.38,30.15,6,0,6,0.18
2014-1-2,59.0,52.6,48.6,59.0,52.1,42.3,100,98,75,30.15,29.69,13,1,13,0.63